Regional Weather Roundup
Issued by NWS

Home | Current Version | Previous Version | Text Only | Print | Product List | Glossary On
Versions: 1 2 3 4 5 6 7 8 9 10 11 12 13 14 15 16 17 18 19 20 21 22 23 24 25 26 27 28
000
ASUS46 KSEW 191310
RWRWA

WASHINGTON REGIONAL WEATHER ROUNDUP
NATIONAL WEATHER SERVICE SEATTLE WA
600 AM PDT SAT AUG 19 2017

NOTE:"FAIR" INDICATES FEW OR NO CLOUDS BELOW 12,000 FEET WITH NO
SIGNIFICANT WEATHER AND/OR OBSTRUCTIONS TO VISIBILITY.

WAZ507-509-555>559-191400-
SEATTLE, TACOMA, EVERETT, AND VICINITY

CITY           SKY/WX    TMP DP  RH WIND       PRES   REMARKS
EVERETT        CLOUDY    54  51  90 NW6       30.19R
BOEING FIELD   MOCLDY    60  52  74 NE7       30.18R
RENTON         MOCLDY    61  51  70 VRB3      30.17R
SEATAC AIRPORT MOCLDY    60  50  69 N7        30.18R
JBLM-MCCHORD   CLOUDY    60  60  99 NW5       30.18R
PUYALLUP       CLOUDY    61  57  88 CALM      30.18R
BREMERTON      CLOUDY    57  51  80 E3        30.18S
JBLM-FT LEWIS  CLOUDY    59  57  94 SW5       30.18R
TACOMA NARROWS CLOUDY    59  54  83 CALM      30.19R
$$

WAZ001-503-506-510-514-515-191400-
NORTH INTERIOR

CITY           SKY/WX    TMP DP  RH WIND       PRES   REMARKS
BELLINGHAM     CLOUDY    57  55  93 S8        30.16R
FRIDAY HARBOR  CLOUDY    51  51 100 CALM      30.18R
EASTSOUND      CLOUDY    57  52  82 S6        30.16S
PORT ANGELES   CLEAR     51  48  89 W6        30.19S
EDIZ HOOK      FAIR      54  49  85 W8        30.19R
PORT TOWNSEND  FAIR      55  50  82 NW6       30.19R
NAS WHIDBEY    MOCLDY    57  50  77 SW6       30.22R
ARLINGTON      MOCLDY    50  48  93 CALM      30.20R
BURLINGTON     CLOUDY    54  52  94 CALM      30.18R
$$

WAZ020-022-039-040-504-511-512-191400-
SOUTHWEST INTERIOR

CITY           SKY/WX    TMP DP  RH WIND       PRES   REMARKS
SHELTON        CLOUDY    56  52  86 W6        30.16R
OLYMPIA        CLOUDY    56  53  90 VRB3      30.18R
CHEHALIS       CLOUDY    55  52  88 SW3       30.19S
KELSO          PTCLDY    57  52  83 CALM      30.20S
VANCOUVER      CLOUDY    60  53  77 NW5       30.18R
SCAPPOOSE, OR  CLEAR     57  49  74 VRB5      30.18R
PORTLAND, OR   MOCLDY    60  52  74 NW10      30.18R
$$

WAZ021-516-517-191400-
WASHINGTON COAST

CITY           SKY/WX    TMP DP  RH WIND       PRES   REMARKS
FORKS          CLOUDY    54  52  93 CALM      30.21S
HOQUIAM        CLEAR     55  51  86 CALM      30.20S
ASTORIA, OR    MOCLDY    57  52  83 N13G18    30.21S
$$

WAZ019-023-024-040-567>569-191400-
CASCADE MOUNTAINS AND COLUMBIA GORGE

CITY           SKY/WX    TMP DP  RH WIND       PRES   REMARKS
STAMPEDE PASS  PTCLDY    46  45  96 W7        30.19R
TROUTDALE, OR  MOCLDY    62  53  72 VRB6      30.18R
HOOD RIVER, OR SUNNY     63  54  72 NW10      30.11R
THE DALLES, OR CLEAR     66  53  63 NW7       30.07R
$$

WAZ026-027-041>044-520-521-191400-
EAST SLOPES

CITY           SKY/WX    TMP DP  RH WIND       PRES   REMARKS
OMAK           CLEAR     55  42  61 N7        30.03R
WENATCHEE      MOCLDY    65  42  43 W23       30.03S
ELLENSBURG     PTCLDY    61  48  62 NW20G29   30.07R
YAKIMA         CLEAR     67  49  52 NW12      30.06R
SUNNYSIDE ARPT   N/A     48  47  95 CALM      30.04S
YAKIMA TC      FAIR      63  47  56 N8        30.05R
$$

WAZ028-034-035-191400-
COLUMBIA BASIN

CITY           SKY/WX    TMP DP  RH WIND       PRES   REMARKS
EPHRATA        CLEAR     65  37  35 NW10      30.01R
MOSES LAKE     CLEAR     57  42  57 NW7       30.02R
PASCO          CLEAR     56  51  84 NE5       30.03R
RICHLAND ARPT  SUNNY     58  51  77 CALM      30.03S
HERMISTON, OR  CLEAR     64  54  69 SW13      30.04R
$$

WAZ036>038-191400-
NORTHEAST WASHINGTON

CITY           SKY/WX    TMP DP  RH WIND       PRES   REMARKS
SPOKANE GEIGER MOCLDY    54  45  71 S6        30.00R
SPOKANE FELTS  PTCLDY    59  46  62 W3        30.00R
FAIRCHILD AFB  PTCLDY    52  43  70 S6        30.00R
COEURDALENE,ID CLEAR     52  44  74 S6        30.01R
DEER PARK      CLEAR     54  43  66 SE6       30.00R
$$

WAZ029>033-191400-
SOUTHEAST WASHINGTON

CITY           SKY/WX    TMP DP  RH WIND       PRES   REMARKS
PULLMAN        PTCLDY    53  44  71 CALM      30.07S
LEWISTON, ID   CLEAR     61  47  59 S6        30.02R
WALLA WALLA    PTCLDY    63  51  65 S10       30.06R
PENDLETON, OR  PTCLDY    61  50  67 W6        30.06R
$$




USA.gov is the U.S. government's official web portal to all federal, state and local government web resources and services.